{"data":{"norad_id":57138,"epoch":"2026-05-25T04:19:23.212128Z","epoch_age_seconds":59751,"freshness":"FRESH","line1":"1 57138U 23090AP  26145.18012977 -.00000382  00000+0 -43636-5 0  9992","line2":"2 57138  43.0025 191.1974 0001362 284.2054  75.8646 15.27576130162056","mean_motion":15.2757613,"eccentricity":0.0001362,"inclination_deg":43.0025,"raan_deg":191.1974,"arg_perigee_deg":284.2054,"mean_anomaly_deg":75.8646,"bstar":-4.3636e-6,"rev_number":16205,"period_min":94.266987531417,"perigee_km":482.12618911175,"apogee_km":483.99517936094,"semimajor_km":6861.1976842363,"source":"CELESTRAK","updated_at":"2026-05-25T13:38:18.247171Z"}}